RH
97 97 98 99 97 76 55 52 59 64 66 65 63 61 60 62 63 67 64 69 69 72 74 83 89 86 85 94 89 94 93 92 92 81 77 71 71 72 71 74 80 78 81
91 98 100 99 99 92 68 52 54 60 61 62 62 62 57 56 62 63 63 70 70 74 72 81 95 100 88 89 95 96 90 94 91 89 84 83 77 73 70 75 78 80 82
92 100 100 100 100 97 94 81 62 56 58 58 59 83 59 54 59 58 60 60 60 62 67 74 79 86 90 96 99 99 95 95 98 98 94 90 87 87 92 91 83 86 83
91 100 100 100 100 100 93 83 82 62 60 56 55 53 46 52 54 54 56 57 60 63 68 70 79 85 88 88 90 95 92 96 98 100 97 94 99 96 98 99 100 99 94
83 100 100 100 100 100 95 89 94 73 66 61 58 59 59 57 53 55 59 60 63 63 65 68 72 80 87 96 99 98 98 94 94 99 96 97 99 100 98 96 99 96 99
75 91 100 100 100 100 100 100 97 94 93 88 87 94 90 92 85 79 76 69 64 67 72 72 75 79 82 87 92 95 94 100 98 94 90 96 94 99 99 99 99 99 97
73 74 85 96 100 100 100 100 100 100 100 99 99 97 97 98 93 83 87 81 84 76 74 79 87 93 94 97 95 98 95 94 90 92 97 92 92 92 98 100 100 97 94
70 71 74 88 99 100 100 100 100 99 100 99 100 99 97 98 93 84 78 85 100 99 99 99 98 99 98 97 99 100 100 100 100 100 100 100 99 100 100 100 99 97 96
69 67 68 72 85 91 100 100 100 100 99 100 100 99 99 100 100 99 85 99 100 100 100 100 100 98 99 96 98 100 100 100 100 99 99 100 99 99 98 96 98 99 100
61 61 62 64 67 70 80 88 93 93 98 98 98 98 100 100 100 99 100 100 100 100 100 100 100 100 99 98 98 100 99 98 93 84 84 85 80 78 84 89 94 100 100
58 58 55 64 67 69 69 70 71 77 81 81 87 90 94 100 100 100 99 100 100 100 100 100 99 97 97 98 91 91 93 78 73 62 66 69 68 70 73 77 81 100 100
59 56 57 57 69 72 74 72 72 74 76 79 81 84 87 92 100 100 100 99 97 98 100 100 100 99 99 97 93 97 89 68 74 82 88 97 98 94 88 86 77 86 96
59 55 57 56 57 70 74 78 81 81 83 84 87 90 91 90 89 93 94 95 92 92 93 95 93 92 93 93 96 96 78 80 86 98 100 100 100 100 100 98 95 96 94
61 56 55 62 61 61 71 80 87 88 89 90 91 93 92 89 89 85 81 78 77 74 86 93 93 96 96 98 90 95 98 99 98 97 93 90 90 91 89 91 88 90 91
60 56 56 58 64 74 83 80 86 89 88 90 87 92 88 86 86 86 88 88 88 89 78 84 91 96 98 98 98 98 98 95 96 96 94 96 97 96 96 94 93 96 94
60 61 57 58 63 68 75 88 90 90 89 88 89 87 89 87 87 86 90 94 94 94 94 93 94 94 94 96 96 98 98 99 100 100 97 96 95 97 96 96 93 93 95
60 63 66 65 66 67 70 74 82 82 80 84 88 87 86 88 90 91 94 95 97 94 93 96 95 97 98 99 98 99 100 100 99 99 100 98 98 98 98 96 94 94 92
61 59 68 68 71 70 70 71 71 74 76 75 88 89 86 88 91 93 94 86 94 95 96 99 100 100 100 98 100 100 100 100 100 99 100 100 100 100 100 98 95 96 96
62 67 68 72 73 70 70 70 71 73 76 78 77 78 90 89 93 94 92 93 93 97 98 99 100 100 100 100 99 100 96 99 93 93 97 100 100 100 99 99 98 93 92
61 61 64 69 75 76 72 72 74 74 77 78 80 86 83 80 85 91 92 97 95 98 98 98 99 100 100 100 98 90 87 86 87 91 96 99 100 100 100 99 99 98 98
58 66 76 70 74 76 75 74 76 77 77 78 79 84 89 83 89 90 96 98 99 99 100 100 100 100 99 98 95 93 90 89 86 90 97 100 100 100 100 100 100 97 99
58 64 76 76 69 78 80 77 79 78 79 80 81 81 92 86 85 87 96 97 100 100 100 100 99 100 100 100 99 94 93 94 93 97 98 100 100 100 100 100 98 95 98
62 67 74 78 76 76 84 80 79 78 80 81 83 85 85 87 89 88 96 99 100 100 100 100 100 100 100 97 95 89 97 97 96 99 100 100 100 100 100 100 100 99 99
65 68 74 79 79 78 84 82 79 79 84 84 86 87 88 87 89 93 95 99 100 100 100 100 100 100 99 97 91 86 92 94 99 100 100 100 100 100 100 100 99 100 100
75 76 76 77 76 81 81 83 80 82 87 87 88 89 89 87 90 93 96 100 100 93 92 91 94 97 98 93 88 86 98 97 94 91 89 100 100 100 100 100 100 100 99
84 82 79 75 74 76 78 80 81 81 82 82 86 88 86 87 89 91 100 100 95 91 88 88 95 98 99 90 90 87 99 95 97 77 82 91 100 100 100 100 98 98 99
Wind_Speed
26 27 26 25 28 24 28 26 31 33 32 31 32 34 34 35 37 36 35 31 33 33 33 31 31 32 28 27 32 29 27 25 15 26 30 29 32 35 33 39 41 37 35
24 25 24 23 24 17 23 28 28 30 29 31 29 29 32 31 32 35 35 30 32 32 33 29 26 25 31 30 32 30 30 29 26 22 27 30 39 39 40 41 35 31 34
26 25 24 23 22 19 18 15 25 25 28 27 22 26 27 23 26 28 29 31 31 30 30 28 25 24 25 26 28 28 29 28 29 24 21 27 32 31 31 30 30 30 33
27 26 25 26 26 24 20 17 16 20 23 21 20 22 20 22 24 25 28 29 31 30 28 27 28 30 29 29 29 29 29 27 25 25 25 22 24 28 29 22 26 35 40
26 26 28 28 27 24 18 15 14 13 18 19 21 22 24 28 25 28 30 29 29 30 32 30 30 33 35 31 28 28 26 26 24 21 21 19 17 13 19 27 30 31 37
23 24 28 28 28 25 14 7 7 9 6 4 6 5 7 8 14 19 24 26 28 30 30 29 30 29 30 34 35 35 34 29 24 24 24 21 25 22 25 29 26 19 7
23 23 25 26 26 26 22 17 18 15 11 10 8 7 8 9 15 19 20 22 23 27 28 27 25 21 20 25 32 39 39 38 36 32 27 24 24 28 27 28 28 28 29
22 24 24 25 24 24 22 22 19 15 16 15 14 13 13 17 18 22 27 22 16 17 17 17 17 15 14 18 20 28 35 36 26 29 20 11 7 7 12 13 30 36 35
20 23 25 22 21 23 23 21 21 21 23 21 20 21 24 25 25 11 19 15 15 13 12 12 8 4 2 9 10 8 10 9 9 10 8 8 6 5 5 5 8 8 3
19 20 21 20 19 17 16 18 19 19 18 19 22 24 24 24 29 26 16 24 25 22 22 21 18 17 15 13 13 11 15 10 7 10 8 9 11 11 11 12 10 9 4
12 14 17 16 17 14 15 16 12 11 13 17 19 20 24 26 28 28 25 25 21 21 20 20 21 17 17 17 17 14 13 10 10 13 13 13 13 13 14 13 9 7 6
9 10 13 15 15 15 13 14 16 15 16 16 16 17 19 21 23 24 23 21 20 23 18 19 17 17 19 18 17 15 13 12 13 15 16 17 16 18 19 17 15 12 8
4 6 9 12 14 14 17 16 16 16 15 14 13 14 17 22 23 18 19 18 18 20 18 17 16 14 15 18 19 18 19 21 21 19 17 17 18 16 16 19 19 18 19
1 3 5 7 11 13 14 17 18 16 14 12 12 12 13 16 19 21 19 16 14 15 15 16 16 17 18 17 22 23 22 19 18 16 13 13 14 16 16 15 19 19 18
4 2 4 5 5 9 11 12 14 14 14 13 12 13 11 13 13 14 14 15 13 12 15 17 17 17 16 17 16 17 17 18 19 15 13 13 13 15 14 16 16 16 14
6 4 3 4 6 5 6 7 8 9 10 12 11 12 13 12 11 10 14 13 13 12 15 15 14 14 14 13 12 11 12 13 16 14 12 12 12 14 19 21 21 21 18
9 8 7 5 4 5 5 5 4 3 6 8 9 9 10 11 12 10 10 13 14 14 15 13 12 12 13 13 12 13 13 12 11 12 14 16 20 22 25 25 24 23 22
11 10 9 8 7 6 5 4 3 3 2 4 7 8 8 9 11 12 9 10 14 15 13 12 11 10 10 10 10 11 12 12 13 19 21 22 22 22 23 23 23 23 23
15 15 13 11 9 8 7 6 5 4 3 3 4 6 6 7 9 11 11 15 11 10 9 8 8 8 8 10 11 14 17 18 22 24 22 20 22 23 23 23 24 26 26
18 16 15 14 13 11 8 7 6 6 6 5 4 4 4 4 8 10 11 10 9 7 6 5 5 6 7 12 15 19 22 23 24 26 25 23 24 24 24 24 23 24 22
22 19 17 16 15 14 12 12 10 10 9 8 5 4 4 5 6 7 7 6 5 5 5 5 7 9 11 15 17 17 20 23 24 26 25 22 24 25 25 24 24 24 21
23 23 22 20 18 16 16 13 12 11 9 8 7 5 4 3 4 4 5 5 5 5 5 5 6 7 9 11 15 17 20 22 23 26 26 25 25 25 25 24 23 22 21
25 24 23 22 19 18 16 15 14 13 11 9 7 5 4 2 2 2 3 3 3 3 4 4 5 8 10 11 12 13 17 20 21 24 26 26 25 24 23 23 21 21 18
27 26 25 22 20 18 17 16 14 12 11 10 8 7 5 3 3 1 1 1 2 3 5 5 6 7 9 10 10 10 16 18 20 21 21 20 22 22 23 19 17 18 16
25 24 23 22 21 20 19 17 15 13 12 11 11 9 7 5 4 3 2 2 2 5 4 4 5 6 6 7 9 9 16 16 17 17 16 15 16 18 17 16 17 14 14
27 25 24 23 23 23 22 20 19 16 15 13 12 10 9 7 6 5 4 3 2 3 2 3 4 5 5 5 7 9 13 14 16 17 14 14 15 17 16 16 15 15 14
Wind_Direction
335 329 325 321 319 281 267 269 267 266 262 256 261 254 240 238 236 229 230 231 234 240 236 232 232 228 227 227 230 227 230 231 240 253 252 251 252 248 244 250 244 248 251
337 326 323 324 320 321 279 262 258 257 259 258 256 253 236 240 235 232 228 226 234 233 237 233 230 233 237 230 226 223 232 230 237 242 244 244 249 252 251 247 247 243 250
337 337 334 331 325 324 303 293 268 263 258 261 264 252 237 241 239 235 236 235 233 238 237 230 226 230 235 235 231 224 228 234 232 239 244 239 245 243 238 235 235 238 249
342 340 339 337 335 327 311 299 298 272 265 262 257 259 257 250 235 234 236 235 239 239 240 239 232 230 228 233 236 235 235 234 233 235 244 242 233 234 234 232 240 245 246
349 348 346 344 345 343 317 309 313 297 270 261 262 265 256 251 249 246 239 236 235 237 239 240 245 244 242 232 227 231 233 235 237 240 250 247 233 209 220 238 241 244 246
348 354 355 356 359 2 11 2 12 27 21 287 261 283 258 251 243 246 242 243 239 238 238 244 250 253 252 248 246 244 237 225 228 235 240 240 247 231 234 233 232 236 249
352 359 3 5 10 15 29 56 56 58 64 58 42 18 359 327 293 258 251 246 244 246 249 249 249 251 256 252 252 244 244 244 245 237 236 237 246 245 227 228 229 234 240
358 360 3 10 19 25 33 45 56 63 62 60 50 39 24 8 336 281 261 260 252 241 241 242 239 230 241 253 258 250 246 240 246 245 245 204 206 246 234 259 247 239 245
7 4 8 12 17 28 36 40 43 53 59 56 57 49 37 25 11 334 264 216 179 154 149 158 151 143 310 273 244 187 141 125 97 124 97 98 84 35 351 312 354 8 302
16 17 15 20 27 24 28 47 59 61 57 50 46 45 40 27 26 30 90 127 111 100 103 88 87 85 80 87 102 104 83 63 64 77 68 55 51 40 33 43 23 17 15
13 25 31 29 24 28 42 47 46 46 51 50 46 39 39 34 34 39 57 69 86 87 77 71 72 68 69 68 73 71 71 65 63 71 69 57 50 36 22 23 23 6 335
6 26 40 42 46 42 42 49 55 53 54 44 40 38 32 33 34 40 50 66 79 83 80 83 83 74 70 68 72 67 69 74 60 54 52 40 24 9 5 4 359 350 341
15 46 48 49 53 55 57 56 55 57 42 39 40 38 31 31 37 41 48 59 72 80 80 78 78 75 71 67 59 59 59 52 46 41 31 20 8 357 358 357 350 345 338
341 45 61 71 67 68 68 65 62 55 49 43 43 42 40 38 35 42 56 68 76 89 87 77 73 71 65 61 58 54 52 47 45 42 28 12 3 1 356 350 340 334 325
199 152 119 103 98 81 68 64 73 64 58 63 60 54 50 44 42 47 51 55 69 77 91 79 62 54 51 46 45 43 40 34 30 23 13 1 354 348 344 345 338 327 315
206 203 179 141 122 130 118 103 76 69 65 65 68 68 65 55 55 62 61 64 65 71 68 62 57 53 50 43 37 30 26 20 14 15 9 358 350 347 343 345 345 335 318
211 199 189 184 162 143 137 141 159 134 58 52 54 62 67 69 65 67 69 68 66 75 69 58 53 43 36 31 22 13 4 4 3 7 3 2 357 354 351 339 331 325 317
212 207 201 191 179 169 163 146 134 123 81 49 49 38 46 60 62 65 79 82 62 56 59 55 46 36 31 23 11 4 356 0 6 7 6 2 354 340 329 323 318 310 304
210 203 200 198 198 189 178 166 154 144 126 98 50 45 50 63 66 67 72 83 81 66 53 45 34 25 20 14 10 7 12 12 7 4 358 349 340 329 317 308 300 297 298
217 213 206 202 195 194 192 184 172 161 157 150 122 69 73 84 66 62 65 81 83 78 66 54 33 20 12 13 11 16 14 10 4 359 348 338 328 315 303 301 299 296 290
219 211 208 208 207 203 197 190 189 181 173 170 151 113 106 110 99 84 82 75 78 81 72 50 29 19 13 10 12 11 7 5 1 353 338 323 319 312 310 304 299 299 293
222 220 213 214 210 206 205 206 197 191 188 180 170 155 133 106 97 96 79 67 53 44 33 33 21 10 359 2 5 6 2 357 352 344 332 320 316 313 312 306 305 309 305
226 222 221 221 219 214 209 209 206 202 197 195 196 192 189 161 127 105 103 75 42 25 9 11 7 2 1 14 17 3 353 349 344 340 328 321 318 317 316 312 313 312 315
227 221 220 221 221 217 214 210 219 219 212 208 206 201 205 204 187 166 289 1 6 8 1 357 5 7 8 8 5 358 356 353 346 335 329 333 326 325 326 320 324 326 335
229 222 218 217 220 217 218 217 218 221 222 221 212 210 208 207 208 229 281 309 339 359 352 352 351 356 5 5 357 352 356 350 346 343 344 349 353 339 332 330 343 341 356
228 222 219 222 224 223 218 214 211 216 219 218 217 217 213 213 221 231 225 261 324 339 333 329 333 336 350 3 1 351 353 353 354 1 359 5 11 10 351 1 9 21 14